Weather History for K08D - October, 2012

Change the Weather History Date:

Wednesday, October 24, 2012

  Actual Average (KMOT) Record (KMOT)
Temperature  
Mean Temperature 29 °F 41 °F  
Max Temperature 32 °F 51 °F 79 °F (1992)
Min Temperature 26 °F 31 °F 10 °F (1957)
Degree Days  
Heating Degree Days 36 24  
Month to date heating degree days 455  
Since 1 July heating degree days 775  
Cooling Degree Days 0 0  
Month to date cooling degree days 0  
Year to date cooling degree days 444  
Moisture  
Dew Point 25 °F    
Average Humidity 84    
Maximum Humidity 100    
Minimum Humidity 69    
Precipitation  
Precipitation 0.00 in 0.03 in 0.10 in (1954)
Month to date precipitation 0.95  
Year to date precipitation 15.85  
Sea Level Pressure  
Sea Level Pressure 29.97 in    
Wind  
Wind Speed 14 mph (WNW)    
Max Wind Speed 21 mph    
Max Gust Speed 31 mph    
Visibility 10 miles    
Events      
T = Trace of Precipitation, MM = Missing Value Source: NWS Daily Summary

Daily Weather History Graph

Daily Weather History Graph

Search for Another Location

Airport or City:

Trip Planner

Search our weather history database for the weather conditions in past years. The results will help you decide how hot, cold, wet, or windy it might be!

Date:

Astronomy

Oct. 24, 2012 Rise Set
Actual Time 8:23 AM CDT 6:42 PM CDT
Civil Twilight 7:51 AM CDT 7:15 PM CDT
Nautical Twilight 7:15 AM CDT 7:51 PM CDT
Astronomical Twilight 6:38 AM CDT 8:27 PM CDT
Moon 4:19 PM CDT (10/24) 2:59 AM CDT (10/24)
Length of Visible Light 11h 23m
Length of Day
10h 19m
Waxing Gibbous, 76% of the Moon is Illuminated
Oct 24
Waxing Gibbous
Oct 29
Full
Nov 6
Last Quarter
Nov 13
New
Nov 20
First Quarter

Hourly Weather History & Observations

Time (CDT) Temp. Windchill Dew Point Humidity Pressure Visibility Wind Dir Wind Speed Gust Speed Precip Events Conditions
12:15 AM 32.0 °F 22.5 °F 30.2 °F 93% 29.85 in 10.0 mi WNW 12.7 mph 16.1 mph N/A   Overcast
12:35 AM 32.0 °F 22.5 °F 28.4 °F 87% 29.86 in 10.0 mi West 12.7 mph 20.7 mph N/A   Overcast
12:55 AM 30.2 °F 19.8 °F 28.4 °F 93% 29.86 in 10.0 mi WNW 13.8 mph 20.7 mph N/A   Overcast
1:15 AM 30.2 °F 21.3 °F 28.4 °F 93% 29.85 in 10.0 mi WNW 10.4 mph 20.7 mph N/A   Overcast
1:35 AM 28.4 °F 16.6 °F 26.6 °F 93% 29.85 in 10.0 mi WNW 16.1 mph 21.9 mph N/A   Overcast
1:55 AM 28.4 °F 19.7 °F 26.6 °F 93% 29.85 in 10.0 mi NW 9.2 mph 24.2 mph N/A   Overcast
2:15 AM 28.4 °F 21.2 °F 26.6 °F 93% 29.88 in 10.0 mi West 6.9 mph - N/A   Overcast
2:35 AM 28.4 °F 17.5 °F 26.6 °F 93% 29.90 in 10.0 mi West 13.8 mph - N/A   Overcast
2:55 AM 26.6 °F 13.8 °F 26.6 °F 100% 29.90 in 10.0 mi West 17.3 mph - N/A   Mostly Cloudy
3:15 AM 26.6 °F 15.7 °F 26.6 °F 100% 29.90 in 10.0 mi West 12.7 mph 19.6 mph N/A   Scattered Clouds
3:35 AM 26.6 °F 15.7 °F 26.6 °F 100% 29.90 in 10.0 mi WNW 12.7 mph 18.4 mph N/A   Overcast
3:55 AM 26.6 °F 13.8 °F 24.8 °F 93% 29.90 in 10.0 mi West 17.3 mph 31.1 mph N/A   Overcast
4:15 AM 26.6 °F 13.8 °F 24.8 °F 93% 29.88 in 10.0 mi WNW 17.3 mph 27.6 mph N/A   Overcast
4:35 AM 26.6 °F 13.8 °F 24.8 °F 93% 29.91 in 10.0 mi West 17.3 mph 26.5 mph N/A   Overcast
4:55 AM 26.6 °F 15.2 °F 24.8 °F 93% 29.91 in 10.0 mi WNW 13.8 mph 23.0 mph N/A   Overcast
5:15 AM 26.6 °F 16.2 °F 24.8 °F 93% 29.92 in 10.0 mi West 11.5 mph 23.0 mph N/A   Overcast
5:35 AM 26.6 °F 15.2 °F 24.8 °F 93% 29.93 in 10.0 mi WNW 13.8 mph 19.6 mph N/A   Overcast
5:55 AM 26.6 °F 15.7 °F 24.8 °F 93% 29.93 in 10.0 mi WNW 12.7 mph 20.7 mph N/A   Mostly Cloudy
6:15 AM 26.6 °F 17.5 °F 24.8 °F 93% 29.93 in 10.0 mi West 9.2 mph 16.1 mph N/A   Mostly Cloudy
6:35 AM 26.6 °F 16.8 °F 24.8 °F 93% 29.93 in 10.0 mi West 10.4 mph 17.3 mph N/A   Overcast
6:55 AM 26.6 °F 15.2 °F 24.8 °F 93% 29.93 in 10.0 mi West 13.8 mph 24.2 mph N/A   Overcast
7:15 AM 26.6 °F 16.2 °F 24.8 °F 93% 29.94 in 10.0 mi West 11.5 mph 16.1 mph N/A   Overcast
7:35 AM 26.6 °F 19.1 °F 24.8 °F 93% 29.94 in 10.0 mi West 6.9 mph - N/A   Mostly Cloudy
7:55 AM 26.6 °F 18.2 °F 24.8 °F 93% 29.94 in 10.0 mi West 8.1 mph 16.1 mph N/A   Overcast
8:15 AM 26.6 °F 16.2 °F 24.8 °F 93% 29.95 in 10.0 mi West 11.5 mph 18.4 mph N/A   Overcast
8:55 AM 28.4 °F 17.0 °F 24.8 °F 86% 29.96 in 10.0 mi West 15.0 mph 25.3 mph N/A   Overcast
9:15 AM 28.4 °F 17.0 °F 24.8 °F 86% 29.96 in 10.0 mi West 15.0 mph 25.3 mph N/A   Overcast
9:35 AM 28.4 °F 15.8 °F 24.8 °F 86% 29.95 in 10.0 mi West 18.4 mph 26.5 mph N/A   Overcast
9:55 AM 28.4 °F 15.8 °F 24.8 °F 86% 29.97 in 10.0 mi West 18.4 mph 25.3 mph N/A   Overcast
10:15 AM 28.4 °F 15.4 °F 24.8 °F 86% 29.97 in 10.0 mi West 19.6 mph 23.0 mph N/A   Overcast
10:35 AM 28.4 °F 18.0 °F 24.8 °F 86% 29.98 in 10.0 mi West 12.7 mph 24.2 mph N/A   Overcast
11:15 AM 28.4 °F 15.8 °F 23.0 °F 80% 29.98 in 10.0 mi West 18.4 mph 27.6 mph N/A   Overcast
11:35 AM 28.4 °F 16.6 °F 23.0 °F 80% 29.99 in 10.0 mi West 16.1 mph 24.2 mph N/A   Overcast
11:55 AM 28.4 °F 17.0 °F 23.0 °F 80% 29.99 in 10.0 mi West 15.0 mph 25.3 mph N/A   Overcast
12:15 PM 28.4 °F 15.1 °F 23.0 °F 80% 30.00 in 10.0 mi West 20.7 mph 26.5 mph N/A   Overcast
12:35 PM 28.4 °F 15.4 °F 23.0 °F 80% 30.00 in 10.0 mi West 19.6 mph 25.3 mph N/A   Overcast
12:55 PM 28.4 °F 15.8 °F 23.0 °F 80% 30.00 in 10.0 mi West 18.4 mph 25.3 mph N/A   Overcast
1:15 PM 28.4 °F 15.4 °F 23.0 °F 80% 30.00 in 10.0 mi West 19.6 mph 26.5 mph N/A   Overcast
1:35 PM 28.4 °F 15.8 °F 23.0 °F 80% 29.99 in 10.0 mi West 18.4 mph 27.6 mph N/A   Overcast
1:55 PM 28.4 °F 15.8 °F 23.0 °F 80% 29.98 in 10.0 mi West 18.4 mph 25.3 mph N/A   Overcast
2:15 PM 28.4 °F 15.8 °F 23.0 °F 80% 29.97 in 10.0 mi West 18.4 mph 25.3 mph N/A   Overcast
2:35 PM 30.2 °F 18.1 °F 23.0 °F 75% 29.98 in 10.0 mi West 18.4 mph 26.5 mph N/A   Overcast
2:55 PM 28.4 °F 15.8 °F 23.0 °F 80% 29.99 in 10.0 mi West 18.4 mph 26.5 mph N/A   Overcast
3:15 PM 30.2 °F 17.4 °F 23.0 °F 75% 29.99 in 10.0 mi West 20.7 mph 26.5 mph N/A   Overcast
3:35 PM 30.2 °F 17.4 °F 23.0 °F 75% 29.98 in 10.0 mi West 20.7 mph 25.3 mph N/A   Overcast
4:15 PM 32.0 °F 21.6 °F 23.0 °F 69% 29.98 in 10.0 mi WNW 15.0 mph 21.9 mph N/A   Overcast
4:35 PM 32.0 °F 21.2 °F 23.0 °F 69% 29.98 in 10.0 mi WNW 16.1 mph 21.9 mph N/A   Overcast
4:55 PM 32.0 °F 21.6 °F 24.8 °F 75% 29.98 in 10.0 mi West 15.0 mph 25.3 mph N/A   Overcast
5:15 PM 32.0 °F 21.6 °F 24.8 °F 75% 29.99 in 10.0 mi WNW 15.0 mph 23.0 mph N/A   Overcast
5:35 PM 32.0 °F 21.2 °F 24.8 °F 75% 29.99 in 10.0 mi West 16.1 mph 26.5 mph N/A   Overcast
5:55 PM 32.0 °F 23.6 °F 24.8 °F 75% 30.00 in 10.0 mi WNW 10.4 mph 19.6 mph N/A   Overcast
6:15 PM 32.0 °F 22.1 °F 24.8 °F 75% 30.01 in 10.0 mi WNW 13.8 mph 20.7 mph N/A   Overcast
6:35 PM 32.0 °F 24.2 °F 24.8 °F 75% 30.01 in 10.0 mi WNW 9.2 mph - N/A   Overcast
6:55 PM 32.0 °F 23.0 °F 24.8 °F 75% 30.02 in 10.0 mi WNW 11.5 mph - N/A   Overcast
7:15 PM 32.0 °F 23.0 °F 24.8 °F 75% 30.03 in 10.0 mi WNW 11.5 mph 17.3 mph N/A   Overcast
7:55 PM 32.0 °F 24.2 °F 24.8 °F 75% 30.04 in 10.0 mi West 9.2 mph - N/A   Overcast
8:15 PM 32.0 °F 23.0 °F 24.8 °F 75% 30.03 in 10.0 mi West 11.5 mph - N/A   Overcast
8:35 PM 32.0 °F 23.0 °F 24.8 °F 75% 30.03 in 10.0 mi WNW 11.5 mph 16.1 mph N/A   Overcast
8:55 PM 32.0 °F 21.6 °F 24.8 °F 75% 30.04 in 10.0 mi NW 15.0 mph 21.9 mph N/A   Overcast
9:15 PM 32.0 °F 23.6 °F 24.8 °F 75% 30.05 in 10.0 mi NW 10.4 mph - N/A   Overcast
9:55 PM 32.0 °F 22.1 °F 24.8 °F 75% 30.04 in 10.0 mi NW 13.8 mph 19.6 mph N/A   Overcast
10:15 PM 30.2 °F 19.3 °F 24.8 °F 80% 30.03 in 10.0 mi WNW 15.0 mph 23.0 mph N/A   Overcast
10:35 PM 30.2 °F 18.1 °F 23.0 °F 75% 30.04 in 10.0 mi WNW 18.4 mph 25.3 mph N/A   Overcast
10:55 PM 30.2 °F 18.1 °F 23.0 °F 75% 30.05 in 10.0 mi WNW 18.4 mph 25.3 mph N/A   Overcast
11:15 PM 30.2 °F 19.8 °F 24.8 °F 80% 30.06 in 10.0 mi WNW 13.8 mph 24.2 mph N/A   Overcast
11:35 PM 30.2 °F 18.9 °F 24.8 °F 80% 30.05 in 10.0 mi WNW 16.1 mph 27.6 mph N/A   Overcast
11:55 PM 30.2 °F 17.4 °F 24.8 °F 80% 30.06 in 10.0 mi WNW 20.7 mph 27.6 mph N/A   Overcast